[[{"header":{"parameterUnit":"m.s-1","parameterCategory":1,"la1":30.2991,"la2":30.254,"lo1":-89.0895,"lo2":-89.0444,"dy":0.0017,"dx":0.0017,"nx":28,"ny":28,"refTime":"2026-03-03T03:00:00:Z","depth":0,"parameterNumber":2,"parameterNumberName":"U-component_of_WINDS"},"data":[0,0,0,0,0,0,0,0,0,0,0,0,0,0,0,0,0,0,0,0,0,0,0,0,0,0,0,0,0,0,0,0,0,0,0,0,0,0,0,0,0,0,0,0,0,0,0,0,0,0,0,0,0,0,0,0,0,0,-4.132,-4.1321,0,-4.1403,-4.1404,-4.1405,-4.1357,-4.1354,-4.1352,-4.135,-4.1432,-4.1436,-4.144,0,0,0,0,0,0,0,0,0,0,0,0,0,-4.1119,-4.1123,-4.132,-4.1321,-4.1322,-4.1403,-4.1404,-4.1405,-4.1357,-4.1354,-4.1351,-4.1349,-4.143,-4.1436,-4.1441,0,0,0,0,0,0,0,0,0,0,0,0,0,-4.1205,-4.1124,-4.132,-4.1308,-4.1308,-4.1403,-4.1404,-4.1406,-4.1358,-4.1354,-4.1351,-4.1347,-4.1429,-4.1435,-4.1442,-4.1552,0,0,-4.1462,-4.1464,0,0,0,0,0,0,0,0,-4.12,-4.1212,-4.1309,-4.1309,-4.1309,-4.1366,-4.1363,-4.1455,-4.1359,-4.1339,-4.135,-4.1346,-4.1413,-4.142,-4.1443,-4.1556,-4.156,-4.1462,-4.1466,-4.1469,-4.1471,0,0,0,0,0,0,0,-4.1194,-4.1208,-4.1353,-4.131,-4.131,-4.1298,-4.1306,-4.138,-4.1394,-4.134,-4.1337,-4.1347,-4.1412,-4.1437,-4.1445,-4.1561,-4.1462,-4.1468,-4.1472,-4.1474,-4.177,-4.1774,0,0,0,0,0,0,-4.1189,-4.1204,-4.135,-4.1355,-4.1245,-4.1305,-4.1314,-4.1351,-4.1393,-4.1396,-4.135,-4.1345,-4.1428,-4.1437,-4.1448,-4.158,-4.1469,-4.1475,-4.1479,-4.1766,-4.1771,-4.1775,0,0,0,0,0,0,-4.1185,-4.1203,-4.1347,-4.1279,-4.1296,-4.1312,-4.1354,-4.1355,-4.138,-4.1401,-4.1403,-4.1374,-4.1425,-4.1439,-4.1527,-4.1582,-4.1478,-4.1484,-4.1761,-4.1767,-4.1773,-4.1846,0,0,0,0,0,0,-4.1179,-4.1201,-4.1244,-4.128,-4.13,-4.1425,-4.1358,-4.1359,-4.1392,-4.1385,-4.1423,-4.1426,-4.1424,-4.1518,-4.1534,-4.1589,-4.1489,-4.1756,-4.1764,-4.1771,-4.1838,-4.1853,-4.1866,0,0,0,0,0,-4.1172,-4.126,-4.1246,-4.1264,-4.1353,-4.1429,-4.144,-4.1436,-4.1396,-4.1439,-4.1453,-4.1425,-4.1574,-4.1527,-4.1545,-4.1603,-4.1753,-4.1762,-4.177,-4.1832,-4.185,-4.1866,0,0,0,0,0,0,-4.1228,-4.1264,-4.1249,-4.1351,-4.1388,-4.142,-4.1473,-4.1455,-4.1502,-4.1494,-4.1486,-4.1495,-4.1588,-4.1605,-4.1551,-4.1713,-4.1657,-4.167,-4.1698,-4.1716,-4.173,-4.1722,-4.1495,0,0,0,0,0,-4.1253,-4.1311,-4.134,-4.1427,-4.1446,-4.1457,-4.149,-4.1484,-4.152,-4.1535,-4.1555,-4.1591,-4.1646,-4.1682,-4.1734,-4.1842,-4.1849,-4.1891,-4.1905,-4.1916,-4.1926,-4.1985,-4.2004,-4.1804,-4.1804,-4.1804,0,0,-4.1303,-4.133,-4.1367,-4.1439,-4.1466,-4.1527,-4.147,-4.1536,-4.1581,-4.1545,-4.1629,-4.1646,-4.1686,-4.1785,-4.1829,-4.1802,-4.1984,-4.1928,-4.1936,-4.194,-4.1996,-4.2015,-4.2032,-4.181,-4.1809,-4.1808,0,0,-4.1425,-4.1452,-4.1528,-4.1557,-4.16,-4.1607,-4.1626,-4.1662,-4.1672,-4.1758,-4.1732,-4.1786,-4.1881,-4.191,-4.1938,-4.2075,-4.2051,-4.2093,-4.2164,-4.2221,-4.2237,-4.2251,-4.2299,-4.2316,-4.2103,-4.2103,-4.2104,0,-4.1482,-4.1572,-4.1569,-4.1638,-4.167,-4.1643,-4.172,-4.1748,-4.1805,-4.1828,-4.1797,-4.1917,-4.1942,-4.2047,-4.2081,-4.2105,-4.2125,-4.2086,-4.2235,-4.2249,-4.2262,-4.2308,-4.2326,-4.2108,-4.2108,-4.2107,-4.2107,0,-4.164,-4.1704,-4.176,-4.1817,-4.1856,-4.1929,-4.1937,-4.1977,-4.1969,-4.1979,-4.2067,-4.2097,-4.2154,-4.218,-4.2172,-4.2285,-4.2266,-4.2236,-4.2179,-4.2286,-4.2328,-4.2346,-4.2115,-4.2113,-4.2112,-4.211,0,0,-4.1796,-4.1853,-4.1873,-4.19,-4.1946,-4.1995,-4.2068,-4.2125,-4.216,-4.2201,-4.2261,-4.2343,-4.2316,-4.2347,-4.2343,-4.2394,-4.25,-4.2357,-4.2357,-4.2381,-4.2626,-4.2647,-4.2668,-4.2486,-4.249,-4.2492,-4.2622,0,-4.192,-4.2046,-4.2047,-4.2163,-4.2221,-4.2198,-4.2261,-4.2296,-4.2309,-4.2361,-4.2375,-4.2433,-4.2393,-4.2412,-4.2461,-4.2477,-4.2549,-4.2468,-4.254,-4.2543,-4.2529,-4.269,-4.2713,-4.2834,-4.2639,-4.2642,-4.2644,0,-4.2081,-4.2129,-4.2251,-4.2291,-4.2316,-4.2372,-4.2426,-4.2476,-4.2516,-4.2522,-4.2559,-4.2548,-4.2621,-4.2565,-4.2666,-4.261,-4.2641,-4.2653,-4.2658,-4.2662,-4.2598,-4.2698,-4.2873,-4.289,-4.2671,-4.2669,-4.2667,0,-4.2181,-4.2276,-4.2362,-4.2386,-4.2434,-4.2475,-4.2497,-4.2534,-4.2569,-4.2617,-4.264,-4.2695,-4.2724,-4.2767,-4.2771,-4.273,-4.2873,-4.2817,-4.2879,-4.2879,-4.2907,-4.2905,-4.3088,-4.2931,-4.2931,-4.293,-4.293,0,-4.2318,-4.2393,-4.2408,-4.246,-4.2545,-4.2546,-4.2629,-4.2647,-4.2681,-4.2737,-4.2721,-4.2773,-4.2776,-4.283,-4.2834,-4.2917,-4.2931,-4.2937,-4.2936,-4.2937,-4.2936,-4.2955,-4.2946,-4.2935,-4.2934,-4.2933,-4.2932,0,-4.2442,-4.2455,-4.2547,-4.2587,-4.2599,-4.2659,-4.2693,-4.2743,-4.2756,-4.2827,-4.2843,-4.2863,-4.2926,-4.2935,-4.3008,-4.3011,-4.311,-4.3102,-4.3096,-4.3095,-4.3156,-4.3149,-4.3355,-4.3382,-4.3209,-4.3211,-4.3212,0,-4.2527,-4.2585,-4.2632,-4.2669,-4.2694,-4.2753,-4.279,-4.2794,-4.2833,-4.2885,-4.2929,-4.2991,-4.304,-4.3142,-4.3162,-4.3218,-4.321,-4.3279,-4.3218,-4.3217,-4.3209,-4.3205,-4.3211,-4.3289,-4.3291,-4.3293,-4.3294,0,-4.2677,-4.2682,-4.2735,-4.2793,-4.2837,-4.2882,-4.2924,-4.2955,-4.2965,-4.301,-4.3075,-4.3114,-4.319,-4.3251,-4.3308,-4.333,-4.3314,-4.3314,-4.333,-4.333,-4.3324,-4.3327,-4.3126,-4.3308,-4.3306,-4.3305,-4.3305,-4.3304,-4.2783,-4.2834,-4.2876,-4.2937,-4.297,-4.301,-4.306,-4.308,-4.3135,-4.3197,-4.3197,-4.3269,-4.3309,-4.3384,-4.3411,-4.3466,-4.3444,-4.3469,-4.3475,-4.348,-4.3486,-4.3318,-4.3477,-4.3476,-4.3476,-4.3476,-4.3475,0,-4.2931,-4.2958,-4.3014,-4.3075,-4.3123,-4.3107,-4.3153,-4.3194,-4.3258,-4.3298,-4.3348,-4.3423,-4.3483,-4.351,-4.3569,-4.3609,-4.3603,-4.3624,-4.3619,-4.3625,-4.3503,-4.3481,-4.3628,-4.3628,-4.3628,-4.3628,-4.3628,-4.3627,-4.3013,-4.3098,-4.3108,-4.321,-4.3235,-4.3306,-4.3334,-4.3372,-4.3404,-4.3489,-4.354,-4.3557,-4.3592,-4.3655,-4.3709,-4.3715,-4.3737,-4.3762,-4.3764,-4.3649,-4.3633,-4.3619,-4.3598,-4.3767,-4.3767,-4.3881,-4.3883,-4.3883]},{"header":{"parameterUnit":"m.s-1","parameterCategory":1,"la1":30.2991,"la2":30.254,"lo1":-89.0895,"lo2":-89.0444,"dy":0.0017,"dx":0.0017,"nx":28,"ny":28,"refTime":"2026-03-03T03:00:00:Z","depth":0,"parameterNumber":3,"parameterNumberName":"V-component_of_WINDS"},"data":[0,0,0,0,0,0,0,0,0,0,0,0,0,0,0,0,0,0,0,0,0,0,0,0,0,0,0,0,0,0,0,0,0,0,0,0,0,0,0,0,0,0,0,0,0,0,0,0,0,0,0,0,0,0,0,0,0,0,2.1372,2.1372,0,2.1415,2.1416,2.1416,2.1427,2.1427,2.1427,2.1427,2.1467,2.1468,2.147,0,0,0,0,0,0,0,0,0,0,0,0,0,2.1296,2.1298,2.1372,2.1372,2.1373,2.1415,2.1416,2.1417,2.1427,2.1427,2.1427,2.1426,2.1467,2.1468,2.147,0,0,0,0,0,0,0,0,0,0,0,0,0,2.1333,2.1298,2.1372,2.1384,2.1385,2.1415,2.1416,2.1417,2.1427,2.1427,2.1427,2.1426,2.1466,2.1468,2.147,2.149,0,0,2.1476,2.1477,0,0,0,0,0,0,0,0,2.1331,2.1336,2.1381,2.1383,2.1385,2.1416,2.1404,2.1441,2.1428,2.1411,2.1427,2.1426,2.145,2.1453,2.1462,2.1492,2.1494,2.1476,2.1477,2.1478,2.1479,0,0,0,0,0,0,0,2.1329,2.1334,2.1389,2.1382,2.1384,2.1386,2.1391,2.1411,2.1432,2.1413,2.1414,2.1419,2.1451,2.146,2.1463,2.1494,2.1476,2.1478,2.1479,2.148,2.1545,2.1546,0,0,0,0,0,0,2.1324,2.1332,2.1388,2.139,2.1357,2.1388,2.1393,2.1406,2.1432,2.1436,2.1419,2.1419,2.1457,2.1461,2.1465,2.1492,2.1478,2.148,2.1481,2.1545,2.1546,2.1546,0,0,0,0,0,0,2.1323,2.1329,2.1386,2.1362,2.1369,2.139,2.1404,2.1407,2.1417,2.1437,2.144,2.1425,2.1457,2.1462,2.1485,2.1493,2.1481,2.1483,2.1544,2.1545,2.1546,2.1544,0,0,0,0,0,0,2.132,2.1329,2.1337,2.1362,2.137,2.1406,2.1404,2.1408,2.142,2.1421,2.1443,2.1447,2.1457,2.1482,2.1487,2.1496,2.1484,2.1544,2.1545,2.1546,2.1544,2.1545,2.1546,0,0,0,0,0,2.1318,2.1333,2.1337,2.1344,2.1381,2.1406,2.1411,2.1423,2.1421,2.1429,2.1443,2.1446,2.1491,2.1484,2.149,2.1499,2.1543,2.1544,2.1545,2.1543,2.1545,2.1546,0,0,0,0,0,0,2.1306,2.1336,2.1341,2.1365,2.1383,2.1408,2.1419,2.1424,2.1442,2.1442,2.1455,2.146,2.1483,2.1493,2.1484,2.1521,2.1517,2.152,2.1514,2.1515,2.1516,2.1513,2.1486,0,0,0,0,0,2.1307,2.1326,2.1351,2.137,2.1379,2.1397,2.1409,2.1417,2.1436,2.1443,2.1458,2.1475,2.1493,2.1505,2.1523,2.1546,2.1551,2.1555,2.1557,2.1557,2.1559,2.1574,2.1576,2.155,2.155,2.155,0,0,2.1308,2.1327,2.1337,2.1368,2.1383,2.1402,2.1403,2.1423,2.1437,2.1445,2.1469,2.148,2.15,2.1524,2.1535,2.1533,2.1568,2.1559,2.156,2.1561,2.1575,2.1578,2.158,2.1551,2.1551,2.1551,0,0,2.1319,2.1335,2.1354,2.137,2.1393,2.1406,2.141,2.1435,2.1444,2.1468,2.1475,2.1492,2.1522,2.1537,2.1549,2.1569,2.1573,2.1574,2.158,2.1594,2.1596,2.1598,2.1607,2.1609,2.1576,2.1576,2.1576,0,2.1317,2.1347,2.1362,2.1382,2.1396,2.1407,2.1426,2.144,2.1467,2.1476,2.1475,2.1516,2.153,2.1558,2.1563,2.1571,2.1577,2.1571,2.1595,2.1597,2.1599,2.1607,2.161,2.1576,2.1576,2.1576,2.1576,0,2.1343,2.1364,2.1376,2.1405,2.142,2.1439,2.1457,2.1471,2.1479,2.1491,2.1516,2.1534,2.1557,2.1564,2.1571,2.1594,2.1592,2.1593,2.1589,2.1602,2.1609,2.1612,2.1576,2.1576,2.1576,2.1576,0,0,2.1346,2.1387,2.1391,2.1405,2.1433,2.1449,2.1469,2.1493,2.1505,2.1524,2.1542,2.1569,2.1571,2.1584,2.1592,2.1605,2.1621,2.1604,2.1605,2.1607,2.1649,2.1649,2.1652,2.1625,2.1625,2.1626,2.1648,0,2.1362,2.14,2.1416,2.1447,2.1467,2.1479,2.1497,2.1516,2.1529,2.1547,2.1561,2.1581,2.1581,2.1589,2.1602,2.1617,2.163,2.1615,2.1641,2.1641,2.1636,2.1656,2.1655,2.1675,2.1651,2.1651,2.1652,0,2.1384,2.1407,2.144,2.1469,2.1477,2.1493,2.1518,2.1535,2.1558,2.1566,2.1583,2.1591,2.1613,2.1609,2.1639,2.1629,2.164,2.1649,2.165,2.1653,2.1647,2.166,2.1681,2.1685,2.1656,2.1656,2.1656,0,2.1385,2.1423,2.1449,2.146,2.1493,2.1505,2.1519,2.1541,2.1555,2.1576,2.1586,2.1609,2.1621,2.1638,2.1653,2.1648,2.1683,2.1679,2.169,2.169,2.1696,2.1696,2.1721,2.1703,2.1703,2.1703,2.1703,0,2.1401,2.1421,2.145,2.1465,2.1488,2.1507,2.1529,2.1544,2.1564,2.1582,2.1594,2.161,2.1629,2.1648,2.166,2.1684,2.1689,2.1697,2.17,2.1696,2.1695,2.1703,2.1703,2.1704,2.1704,2.1704,2.1704,0,2.1404,2.1425,2.1454,2.1484,2.1492,2.1508,2.1534,2.1549,2.1564,2.1588,2.1594,2.1617,2.164,2.1657,2.1687,2.1695,2.1721,2.1723,2.1714,2.1715,2.1726,2.1725,2.1758,2.1763,2.1742,2.1742,2.1742,0,2.1413,2.1429,2.1463,2.1477,2.1492,2.1514,2.153,2.1549,2.1565,2.1593,2.1605,2.163,2.1651,2.1688,2.1707,2.173,2.1733,2.1743,2.1736,2.1733,2.1734,2.1733,2.1735,2.1744,2.1744,2.1744,2.1744,0,2.1427,2.1437,2.146,2.1487,2.1506,2.1528,2.1549,2.156,2.1583,2.16,2.1626,2.1642,2.1674,2.1699,2.1724,2.1738,2.1745,2.1746,2.175,2.1747,2.1741,2.1745,2.1717,2.1745,2.1745,2.1745,2.1745,2.1745,2.1433,2.145,2.1477,2.1502,2.1521,2.1542,2.1559,2.1578,2.16,2.1629,2.1638,2.1665,2.1689,2.1724,2.1739,2.1759,2.1759,2.1764,2.1766,2.1767,2.1767,2.1738,2.1764,2.1764,2.1764,2.1764,2.1764,0,2.1448,2.1467,2.1491,2.1523,2.1543,2.1551,2.1576,2.1592,2.1616,2.1639,2.166,2.169,2.1715,2.1737,2.1762,2.1775,2.1779,2.1781,2.178,2.1783,2.1766,2.176,2.1777,2.1777,2.1777,2.1777,2.1777,2.1777,2.1459,2.1487,2.15,2.1538,2.1557,2.1585,2.1599,2.1618,2.1637,2.1671,2.1692,2.1707,2.1729,2.1757,2.178,2.1786,2.1795,2.1796,2.1803,2.1786,2.1784,2.1783,2.1778,2.1798,2.1798,2.1819,2.1819,2.1819]}]]